{"data":{"norad_id":60183,"intl_designator":"2024-124A","name":"STARLINK-11168 [DTC]","alt_names":[],"object_type":"PAYLOAD","status":"ACTIVE","operator":null,"country":"US","launch_date":"2024-07-03","launch_site_code":"AFETR","launch_vehicle":null,"mission":null,"orbit_class":"UNKNOWN","rcs_meters":null,"size_class":null,"mass_kg":null,"dimensions":null,"purposes":["comms"],"wikipedia_slug":null,"has_3d_model":false,"image_url":null,"decayed_at":null,"tle_current":{"epoch":"2026-09-21T08:03:26.143200Z","epoch_age_seconds":109272,"freshness":"FRESH","line1":"1 60183U 24124A   26264.33571925 -.00003499  00000+0 -24062-4 0  9990","line2":"2 60183  53.1581 276.7095 0001080  69.8904 290.2230 15.69680790128453","mean_motion":15.6968079,"eccentricity":0.000108,"inclination_deg":53.1581,"raan_deg":276.7095,"arg_perigee_deg":69.8904,"mean_anomaly_deg":290.223,"bstar":-2.4062e-5,"rev_number":12845,"period_min":91.738397333639,"perigee_km":359.08264124234,"apogee_km":360.53803786769,"semimajor_km":6737.947339555,"source":"CELESTRAK","updated_at":"2026-09-22T09:00:49.181463Z"}}}